Temperature
20 21 20 20 20 20 19 19 19 19 19 19 19 19 19 19 19 19 18 18 18 18 18 18 18 18 18 18 18 18 18 18 18 18 18 18 17 17 17 17 17 17 17
21 21 20 20 20 20 19 19 19 19 19 19 19 19 19 19 18 18 18 18 18 18 18 18 18 18 18 18 18 18 18 18 18 18 18 17 17 17 17 17 17 17 17
21 21 20 20 20 20 19 19 19 19 19 19 19 19 19 19 18 18 18 18 18 18 18 18 18 18 18 18 18 18 18 18 17 17 17 17 17 17 17 17 17 17 17
21 20 20 20 20 20 19 19 19 19 19 19 18 18 18 18 18 18 18 18 18 18 18 18 18 18 18 18 18 18 17 17 17 17 17 17 17 17 17 17 17 17 17
20 20 21 20 20 19 19 19 19 19 19 19 18 18 18 18 18 18 18 18 18 18 18 18 18 18 18 18 18 18 17 17 17 17 17 17 17 17 17 17 17 17 17
20 20 21 20 20 19 19 19 19 19 18 18 18 18 18 18 18 18 18 18 18 18 18 18 18 18 18 18 18 17 17 17 17 17 17 17 17 17 17 17 17 17 17
20 20 21 20 20 19 19 19 19 19 18 18 18 18 18 18 18 18 18 18 18 18 18 18 18 18 18 18 18 17 17 17 17 17 17 17 17 17 17 17 17 17 17
21 20 21 20 20 19 19 19 19 19 18 18 18 18 18 18 18 18 18 18 18 18 18 18 18 18 18 18 18 18 17 17 17 17 17 17 17 17 17 17 17 17 17
21 21 21 20 20 20 19 19 19 19 18 18 18 18 18 18 18 18 18 18 18 18 18 18 18 18 18 18 18 18 18 17 17 17 17 17 17 17 17 17 17 17 16
21 20 20 19 20 19 19 19 19 19 19 18 18 18 18 18 18 18 18 18 18 18 18 18 18 18 18 18 18 18 18 18 17 17 17 17 17 17 17 17 17 17 16
21 20 20 19 19 19 19 19 19 19 19 18 18 18 18 18 18 18 18 18 18 18 18 18 18 18 18 18 18 18 18 18 17 17 17 17 17 17 17 17 17 17 17
21 21 20 20 19 19 18 19 19 18 19 18 18 18 18 18 17 17 18 18 18 18 18 18 18 18 18 18 18 18 18 18 17 18 18 17 17 17 17 17 17 17 17
21 21 20 20 20 19 19 19 18 18 18 18 18 18 18 18 18 18 18 18 18 18 18 18 18 17 17 17 18 18 18 18 18 18 18 18 17 17 17 17 17 17 17
21 21 20 20 20 19 19 19 19 18 18 18 18 18 18 18 18 18 18 18 18 18 18 17 17 17 17 17 18 18 18 18 18 18 18 18 17 17 17 17 17 17 17
21 21 20 20 20 19 19 19 19 19 19 19 18 18 18 18 18 18 18 18 18 18 18 18 17 17 17 17 17 18 18 18 17 17 18 18 18 17 17 17 17 17 17
21 20 20 20 20 19 19 19 19 19 19 19 18 18 18 18 18 18 18 18 18 18 18 18 18 18 18 18 17 17 17 17 17 17 17 17 17 17 17 17 17 17 17
20 20 20 19 19 19 19 19 19 19 19 19 19 18 18 18 18 18 18 18 18 18 18 18 18 18 18 18 18 17 17 17 17 17 17 17 17 17 17 17 17 17 17
20 20 20 19 19 19 19 19 19 19 19 19 18 18 18 18 18 18 18 18 18 18 18 18 18 18 18 18 18 18 17 17 17 17 17 17 17 17 17 17 17 17 17
20 20 19 19 19 19 19 19 19 19 19 19 18 18 18 18 18 18 18 18 18 18 18 18 18 18 18 18 18 18 18 17 17 17 17 17 17 17 17 17 17 17 17
20 20 19 19 19 19 19 19 18 18 18 19 18 18 18 18 18 18 18 18 18 18 18 18 18 18 18 18 18 18 18 18 18 17 17 17 17 17 17 17 17 17 17
20 20 19 19 19 19 19 19 18 18 18 18 18 18 18 18 18 18 18 18 18 18 18 18 18 18 18 18 18 18 18 18 18 18 18 18 17 17 17 17 17 17 17
19 19 19 19 19 19 19 19 18 18 18 18 18 18 18 18 18 18 18 18 18 18 18 18 18 18 18 18 18 18 18 18 18 18 18 18 18 18 17 17 17 17 17
19 19 19 19 19 19 18 18 18 18 18 18 18 18 18 18 18 18 18 18 18 18 18 18 18 18 18 18 18 18 18 18 18 18 18 18 18 18 18 18 17 17 17
19 19 19 19 19 19 18 18 18 18 18 18 18 18 18 18 18 18 18 18 18 18 18 18 18 18 18 18 18 18 18 18 18 18 18 18 18 18 18 18 17 17 17
19 19 19 19 18 18 18 18 18 18 18 18 18 18 18 18 18 18 18 18 18 18 18 18 18 18 18 18 18 18 18 18 18 18 18 18 18 18 18 18 18 17 17
19 19 19 18 18 18 18 18 18 18 18 18 18 18 18 18 18 18 18 18 18 18 18 18 18 18 18 18 18 18 18 18 18 18 18 18 18 18 18 18 18 17 17
Wind_Speed
16 16 16 16 15 15 15 15 14 14 14 14 14 15 15 15 15 15 15 15 15 14 14 15 15 15 16 16 17 17 17 18 19 19 19 18 17 16 16 17 18 16 18
19 18 17 17 16 15 15 15 14 14 14 14 14 13 14 14 14 14 14 14 14 14 14 15 15 15 15 15 16 16 16 17 18 19 19 18 18 17 16 16 17 16 17
20 19 18 17 16 16 15 15 14 14 14 13 13 13 13 13 13 13 14 14 14 14 14 15 15 15 15 15 14 14 14 15 16 17 17 16 16 17 17 19 18 17 17
20 18 18 17 16 16 15 14 14 14 13 13 12 12 12 12 13 13 13 14 14 14 15 15 15 15 14 14 13 12 12 12 12 12 13 15 15 17 17 18 17 16 16
19 20 19 17 17 16 15 14 14 13 13 12 12 12 12 12 13 13 13 14 14 14 15 14 14 14 13 12 11 9 9 9 9 11 15 17 15 16 16 16 16 16 16
20 20 19 17 17 16 15 14 14 13 12 12 12 11 11 12 12 13 13 14 14 14 14 14 14 13 12 10 8 6 5 4 6 14 15 16 14 14 15 15 15 15 16
20 19 19 17 16 16 15 14 13 12 12 12 11 11 12 12 12 13 13 13 14 14 14 14 13 12 11 9 6 4 2 4 10 14 16 15 14 14 14 14 14 15 15
20 19 18 17 16 15 15 14 13 12 11 11 11 11 12 12 12 13 13 13 13 13 13 13 12 11 10 7 4 2 2 3 13 15 16 14 14 14 14 14 14 14 14
19 18 16 16 15 15 14 14 13 12 11 11 11 11 12 12 12 12 13 12 13 12 12 12 12 11 9 6 3 1 3 4 8 14 15 14 14 13 13 13 13 14 13
15 16 15 16 15 14 14 13 13 12 12 11 11 11 11 12 12 13 13 12 12 11 11 11 10 9 8 5 2 1 4 4 7 14 14 13 14 13 12 12 13 13 13
12 12 13 14 14 14 14 14 13 12 11 11 10 11 11 11 12 11 13 12 11 11 10 10 9 8 7 4 3 3 4 1 10 13 13 15 13 12 12 12 12 12 11
12 11 9 12 12 13 13 13 12 11 11 9 9 11 9 7 9 12 13 12 11 10 9 9 9 8 7 6 5 4 4 4 10 13 13 15 13 12 12 11 11 11 11
11 10 11 10 9 9 9 10 8 9 9 8 9 9 8 8 10 12 10 10 10 10 9 9 9 7 6 4 4 4 2 4 9 12 14 15 13 12 11 11 10 10 10
11 9 10 9 7 6 7 7 7 7 7 6 8 8 7 4 4 7 7 9 9 8 6 7 5 5 4 4 4 2 2 4 10 12 13 14 13 12 11 10 10 10 10
10 9 8 9 7 5 5 3 6 5 6 8 9 7 7 5 3 4 4 5 6 7 6 4 4 4 4 3 3 3 3 4 9 12 12 14 13 11 11 10 10 10 10
9 8 8 8 8 6 4 1 2 5 6 8 8 8 6 6 5 4 3 2 3 5 5 4 4 3 2 2 2 3 3 3 6 11 13 13 12 12 11 10 10 10 10
10 9 8 8 8 7 6 4 4 3 6 5 7 9 7 7 7 4 3 2 3 5 5 3 3 3 3 3 3 3 3 4 5 7 12 13 12 12 12 12 11 10 10
10 10 9 9 9 8 6 4 2 3 4 5 6 8 7 8 8 5 3 3 5 5 4 2 2 2 2 2 3 3 3 4 5 6 9 13 13 12 14 14 13 12 12
10 9 8 6 8 8 7 4 2 2 3 5 6 7 7 8 7 5 2 3 5 3 3 3 3 1 2 2 3 3 3 3 4 5 6 9 12 13 14 15 16 15 14
9 9 9 7 7 7 6 4 2 2 3 4 4 6 8 7 7 5 4 5 4 2 2 2 2 1 1 2 3 3 4 4 4 4 5 7 9 12 15 15 15 15 16
9 9 9 9 8 6 6 6 5 4 3 3 4 8 8 7 7 4 2 4 3 2 3 3 3 3 3 3 1 1 3 4 5 4 4 4 6 9 11 15 15 14 14
9 9 8 8 8 8 6 5 4 4 3 4 3 6 8 8 8 7 4 3 3 3 3 3 2 2 3 3 2 1 2 2 3 6 5 5 5 7 8 12 14 14 13
9 9 8 8 8 8 7 5 5 4 3 3 4 4 5 7 8 6 5 4 3 4 4 4 4 4 2 2 2 2 1 1 1 2 5 5 5 5 4 7 11 13 13
9 8 7 7 7 7 7 7 8 7 6 5 5 5 5 6 6 6 5 5 3 3 4 5 5 4 3 3 2 3 3 2 2 1 1 1 3 3 4 4 4 10 11
8 8 7 7 6 7 7 7 7 6 5 4 4 5 5 5 5 7 7 5 4 3 4 4 3 3 3 3 2 2 2 2 3 3 2 2 2 2 2 1 1 4 8
8 7 8 7 6 6 7 6 6 6 5 4 4 5 5 4 5 7 7 6 5 4 4 4 3 5 4 3 2 2 2 2 2 2 2 3 2 1 1 1 2 3 5
Wind_Direction
114 114 116 116 115 115 115 114 112 110 106 102 99 96 94 93 92 92 93 94 95 94 94 94 93 92 91 90 91 92 92 93 95 97 96 94 93 94 97 103 100 98 103
115 116 116 117 116 116 116 116 114 112 109 106 103 100 98 96 96 96 96 96 95 96 97 98 97 96 95 94 96 97 99 101 103 102 98 92 89 88 90 94 96 103 105
117 120 117 117 118 118 118 117 115 114 111 108 105 102 100 99 99 99 97 98 99 100 100 100 100 99 98 99 100 103 107 111 114 112 105 98 92 89 90 94 99 103 105
122 123 118 119 120 120 119 119 116 115 113 111 108 106 105 105 104 102 101 102 102 102 101 100 101 101 101 101 103 107 112 116 120 115 105 100 97 94 95 97 100 102 106
118 116 118 120 119 119 119 118 116 115 115 113 112 110 109 107 106 105 104 103 104 104 104 104 104 103 104 106 107 110 112 114 114 103 94 92 95 101 100 100 101 102 105
120 119 122 121 120 119 119 118 117 116 118 117 115 113 111 109 109 108 106 105 106 105 105 105 105 105 108 109 108 105 104 102 108 107 103 101 102 105 106 105 104 104 104
121 122 126 125 123 122 121 121 120 120 120 119 118 115 112 111 110 109 109 107 107 106 105 106 106 107 108 108 106 96 79 61 107 105 103 101 106 109 109 109 106 107 107
122 124 128 129 129 129 127 126 125 124 122 120 119 117 115 113 111 112 112 111 109 108 108 109 109 109 110 112 108 67 6 42 106 108 105 106 112 111 111 113 112 111 111
125 129 137 138 136 135 132 132 131 129 127 126 124 123 121 119 117 116 115 114 112 111 111 113 113 111 112 116 116 14 358 22 107 114 110 111 116 114 114 117 117 116 116
130 136 143 147 145 145 140 138 137 135 134 134 134 133 132 129 127 126 121 118 117 117 118 120 121 120 122 130 150 301 330 333 114 107 110 118 122 120 119 120 121 120 120
132 139 148 146 152 152 146 143 145 143 144 146 148 150 153 153 143 139 123 126 125 127 131 133 137 140 144 160 202 270 301 276 97 102 110 125 127 126 125 125 125 125 125
141 142 143 145 152 154 145 146 156 155 155 170 159 164 177 163 145 130 135 135 137 140 146 155 162 167 177 178 196 232 254 138 109 109 119 130 130 129 131 131 132 132 131
149 149 146 144 143 143 138 150 155 150 157 172 161 164 170 155 141 135 144 148 155 162 169 166 183 195 189 176 170 194 234 88 102 113 128 134 135 135 136 138 138 138 137
154 150 143 133 131 130 135 142 155 156 155 158 157 169 157 159 150 147 156 162 170 173 168 169 174 165 157 140 123 104 57 76 110 119 135 140 142 144 144 146 145 145 145
152 150 137 128 125 116 112 149 158 148 157 154 157 168 159 156 141 136 145 151 169 157 165 166 138 142 136 131 126 116 83 80 119 127 138 148 151 154 155 156 157 158 158
154 147 140 138 133 133 138 150 131 142 141 155 158 158 164 142 135 137 151 168 161 135 132 133 138 144 138 142 140 139 139 117 109 133 144 157 164 167 169 170 171 171 171
153 149 150 152 148 154 166 183 167 162 156 148 143 150 160 146 142 148 153 191 148 131 132 149 156 157 176 171 160 150 144 138 144 147 154 163 171 179 181 181 184 185 184
154 157 165 171 159 165 172 193 193 173 150 137 143 150 155 146 157 168 173 178 150 154 164 161 180 179 177 169 165 178 153 154 163 174 171 171 175 180 187 191 192 194 196
154 160 168 162 159 170 171 184 201 160 148 152 152 155 158 159 166 178 159 142 170 181 176 189 153 180 187 177 184 185 184 178 175 199 187 181 179 177 181 193 199 201 204
151 158 164 164 169 175 170 173 180 191 174 162 154 156 159 167 178 191 171 166 184 175 166 144 131 198 209 212 228 184 199 185 183 196 206 191 184 185 184 184 193 205 211
157 162 166 171 175 176 173 174 181 191 188 173 168 164 169 180 182 202 195 161 192 181 173 175 174 204 225 212 212 239 239 206 192 195 209 197 190 198 190 177 190 195 203
164 170 176 178 177 180 178 177 177 181 195 185 180 163 178 179 185 195 198 190 190 171 172 189 187 218 241 212 197 211 234 244 231 212 195 203 199 194 196 190 191 189 192
170 178 181 176 177 181 178 183 179 174 193 185 170 174 188 186 193 201 176 198 192 192 185 194 202 206 238 254 226 193 187 212 253 253 209 202 194 195 200 199 193 186 193
176 176 167 172 176 176 185 196 191 190 192 192 183 182 187 194 195 192 191 197 205 206 184 203 201 207 220 247 239 223 225 175 177 261 265 211 205 198 204 218 191 178 188
169 166 164 168 176 181 193 203 201 201 200 191 182 175 187 194 199 204 197 194 202 216 205 201 178 207 223 236 245 242 245 225 215 200 229 234 219 204 190 186 169 149 169
159 161 166 167 178 187 195 203 205 205 196 192 192 180 193 200 205 213 201 190 199 209 203 201 197 207 221 235 258 259 248 240 234 227 227 225 222 220 173 158 138 129 145
Height
1524 1525 1527 1529 1530 1532 1534 1535 1537 1538 1539 1540 1541 1542 1543 1544 1545 1546 1547 1548 1549 1550 1550 1551 1552 1553 1554 1555 1556 1556 1557 1558 1559 1560 1561 1562 1563 1564 1565 1566 1567 1568 1569
1524 1526 1528 1530 1532 1534 1536 1537 1539 1540 1542 1543 1544 1545 1546 1547 1548 1548 1549 1550 1551 1552 1552 1553 1554 1555 1556 1557 1558 1559 1559 1560 1561 1562 1563 1564 1565 1566 1567 1568 1569 1570 1571
1525 1528 1530 1532 1534 1536 1538 1540 1541 1542 1544 1545 1546 1547 1548 1549 1550 1551 1551 1552 1553 1554 1555 1555 1556 1557 1558 1560 1560 1561 1562 1563 1564 1565 1566 1567 1568 1569 1570 1570 1571 1572 1573
1527 1530 1532 1534 1536 1538 1540 1541 1543 1544 1546 1547 1548 1549 1550 1551 1552 1553 1553 1554 1555 1556 1557 1558 1558 1559 1561 1562 1563 1564 1565 1565 1567 1568 1569 1569 1570 1571 1572 1573 1574 1575 1576
1530 1531 1533 1536 1538 1540 1541 1543 1545 1546 1548 1549 1550 1551 1552 1553 1554 1555 1555 1556 1557 1558 1559 1560 1561 1562 1563 1564 1565 1566 1567 1568 1569 1570 1571 1572 1572 1573 1574 1575 1576 1577 1578
1531 1533 1535 1537 1539 1541 1543 1545 1546 1548 1549 1550 1552 1553 1554 1555 1556 1557 1557 1558 1559 1560 1561 1562 1563 1564 1565 1566 1567 1568 1570 1571 1572 1573 1573 1574 1575 1575 1577 1577 1578 1579 1580
1533 1534 1537 1539 1541 1543 1545 1546 1548 1550 1551 1552 1553 1554 1555 1556 1557 1559 1559 1560 1561 1562 1563 1564 1565 1566 1567 1568 1569 1571 1572 1573 1574 1575 1575 1576 1577 1578 1578 1579 1580 1581 1583
1534 1536 1538 1540 1542 1544 1546 1548 1549 1551 1552 1554 1555 1556 1557 1558 1559 1560 1561 1562 1563 1564 1565 1566 1567 1568 1569 1570 1572 1573 1574 1575 1577 1577 1577 1578 1579 1580 1580 1581 1582 1583 1585
1535 1537 1539 1541 1543 1545 1547 1549 1551 1552 1554 1555 1556 1558 1559 1560 1561 1562 1563 1564 1565 1566 1567 1568 1569 1570 1572 1573 1574 1575 1576 1577 1579 1579 1579 1580 1581 1581 1582 1583 1584 1585 1586
1537 1538 1540 1543 1544 1546 1548 1550 1552 1553 1555 1557 1558 1559 1560 1562 1563 1564 1565 1566 1567 1568 1569 1571 1572 1573 1574 1575 1576 1577 1578 1579 1581 1580 1581 1581 1582 1583 1583 1584 1586 1587 1588
1538 1540 1542 1544 1546 1548 1549 1551 1553 1555 1556 1558 1559 1561 1562 1563 1565 1566 1567 1568 1569 1570 1571 1572 1574 1575 1576 1577 1578 1579 1580 1581 1582 1582 1582 1583 1583 1584 1585 1586 1587 1588 1589
1539 1541 1543 1545 1547 1549 1551 1552 1554 1556 1557 1559 1561 1562 1563 1565 1567 1568 1569 1570 1571 1572 1573 1574 1575 1576 1577 1579 1580 1581 1581 1582 1583 1582 1583 1584 1584 1585 1586 1587 1588 1589 1590
1538 1541 1543 1545 1547 1550 1551 1553 1555 1557 1558 1560 1562 1563 1565 1566 1568 1569 1569 1571 1572 1573 1574 1576 1577 1578 1579 1580 1581 1582 1583 1584 1583 1583 1584 1585 1586 1586 1587 1588 1589 1590 1591
1538 1541 1543 1545 1547 1549 1551 1553 1555 1557 1559 1561 1562 1564 1566 1567 1569 1570 1570 1571 1573 1574 1576 1577 1578 1579 1580 1581 1582 1583 1583 1584 1584 1584 1585 1586 1586 1587 1588 1588 1589 1590 1591
1537 1540 1542 1544 1546 1549 1551 1553 1556 1558 1559 1561 1563 1564 1566 1568 1569 1570 1571 1573 1574 1575 1576 1578 1579 1580 1581 1582 1583 1583 1584 1584 1585 1585 1585 1586 1587 1587 1588 1589 1590 1591 1592
1536 1538 1541 1543 1545 1548 1550 1552 1555 1557 1559 1560 1562 1564 1566 1567 1569 1570 1571 1573 1574 1576 1577 1578 1579 1580 1581 1582 1583 1583 1584 1585 1585 1585 1586 1586 1587 1588 1589 1589 1590 1591 1592
1534 1537 1540 1542 1544 1546 1549 1552 1554 1556 1558 1560 1562 1563 1565 1567 1568 1570 1572 1573 1575 1576 1577 1578 1579 1580 1581 1582 1583 1583 1584 1585 1585 1586 1586 1587 1587 1588 1589 1589 1590 1591 1591
1533 1535 1538 1541 1542 1545 1548 1550 1553 1556 1558 1559 1561 1562 1564 1566 1568 1569 1571 1573 1574 1575 1576 1578 1579 1580 1581 1582 1582 1583 1584 1584 1585 1586 1586 1587 1587 1588 1589 1589 1590 1590 1591
1531 1534 1536 1539 1541 1544 1546 1549 1552 1554 1556 1558 1560 1562 1563 1565 1567 1569 1570 1572 1573 1575 1576 1577 1578 1579 1580 1581 1582 1582 1583 1584 1584 1585 1586 1587 1587 1587 1588 1589 1589 1589 1590
1530 1532 1534 1537 1540 1542 1545 1547 1550 1553 1555 1557 1559 1560 1562 1564 1566 1568 1569 1571 1572 1574 1575 1576 1577 1578 1579 1580 1581 1582 1582 1583 1583 1584 1585 1586 1587 1587 1587 1587 1588 1588 1589
1529 1530 1532 1535 1538 1540 1543 1546 1548 1550 1553 1555 1557 1558 1561 1563 1565 1567 1568 1570 1571 1572 1573 1575 1576 1577 1578 1579 1580 1581 1581 1582 1582 1583 1584 1585 1586 1586 1586 1586 1586 1587 1587
1527 1529 1530 1532 1535 1538 1541 1544 1547 1549 1552 1554 1556 1557 1559 1561 1563 1565 1567 1568 1570 1571 1572 1573 1575 1576 1577 1578 1579 1580 1580 1582 1581 1582 1582 1583 1584 1585 1585 1585 1585 1585 1585
1526 1527 1529 1530 1533 1536 1539 1543 1545 1548 1550 1552 1554 1555 1558 1560 1561 1563 1565 1566 1568 1569 1570 1571 1573 1574 1575 1577 1578 1579 1579 1579 1579 1580 1581 1581 1582 1583 1583 1584 1584 1583 1584
1525 1526 1527 1529 1531 1534 1538 1540 1543 1545 1547 1550 1552 1554 1556 1558 1560 1561 1563 1564 1566 1567 1568 1569 1571 1572 1573 1575 1576 1576 1578 1578 1578 1579 1580 1579 1580 1580 1581 1582 1582 1582 1582
1524 1525 1526 1528 1531 1533 1536 1538 1541 1544 1546 1549 1550 1552 1554 1556 1557 1559 1561 1562 1563 1565 1566 1567 1569 1570 1571 1572 1574 1574 1575 1576 1577 1577 1577 1578 1578 1578 1579 1579 1580 1580 1580
1524 1524 1526 1527 1530 1532 1535 1537 1539 1542 1544 1546 1548 1550 1552 1554 1555 1556 1558 1559 1561 1562 1564 1565 1566 1567 1569 1570 1571 1572 1573 1574 1574 1575 1575 1575 1576 1576 1576 1576 1577 1577 1577